User: anonymous   Login
Location: Unspecified
(0.0000°N, 0.0000°E)
Time: 22:53:07
(UTC+00:00)
Language:

Vanguard 2 - Orbit

View from above orbital plane
View from above orbital plane
View from above satellite
View from above satellite

Ground track
Ground track

The orbit data is extracted from the following two-line orbital elements,

1 00011U 59001A   21300.50446119  .00000176  00000-0  81333-4 0  9999
2 00011  32.8716 349.0000 1466789 177.7996 182.9987 11.85799295333991
Epoch (UTC): 27 October 2021 12:06:25
Eccentricity: 0.1466789
inclination: 32.8716°
perigee height: 553 km
apogee height: 2936 km
right ascension of ascending node: 349.0000°
argument of perigee: 177.7996°
revolutions per day: 11.85799295
mean anomaly at epoch: 182.9987°
orbit number at epoch: 33399

The dashed part of the orbit path shows where the satellite is in the earth's shadow,  

DLR